STARLINK-1185 (45087 NORAD) Tracking and Keplerian Element Data

This shows tracking and keplerian element data for the satellite.

Feedback or suggestion? Click here.




ElementValue
Catalog45087
NameSTARLINK-1185
Epoch Orbit175
Epoch Day196.91667824
Epoch Year2020
RAAN151.2466
Inclination52.9996
Eccentricity0.0001438
Argument of Perigee69.6434
Mean Anonmoly153.6306
Mean Motion15.05607416
Decay Rate-0.00038516
L11 45087U 20006AV 20196.91667824 -.00038516 00000-0 -26367-2 0 9994
L22 45087 52.9996 151.2466 0001438 69.6434 153.6306 15.05607416 1751

Live tracking and technical data element details for STARLINK-1185 (NORAD 45087). STARLINK-1185 can be tracked NOW for your location showing map with azimuth and elevation plus other details from your city location.

Track the satellite on the map from your city or location and see movement details for azimuth, elevation, latitude, longitude, range, height, and movement on the map or in text.







IsCatalogInMostPopularTable: catalog: 45087, numindb: 29
Update: records affected: 1



GetName: 45087 STARLINK-1185

Hit Count: updated at: Thu, 16 Jul 2020 02:19:36 GMT